Year,Month,Day,Hour,Minute,Value (Times are PST for temperature in C)
2018,05,31,00,00,11.90
2018,05,31,00,01,11.90
2018,05,31,00,02,11.90
2018,05,31,00,03,11.90
2018,05,31,00,04,11.80
2018,05,31,00,05,11.80
2018,05,31,00,06,11.80
2018,05,31,00,07,11.80
2018,05,31,00,08,11.80
2018,05,31,00,09,11.80
2018,05,31,00,10,11.80
2018,05,31,00,11,11.80
2018,05,31,00,12,11.80
2018,05,31,00,13,11.80
2018,05,31,00,14,11.70
2018,05,31,00,15,11.70
2018,05,31,00,16,11.70
2018,05,31,00,17,11.70
2018,05,31,00,18,11.70
2018,05,31,00,19,11.60
2018,05,31,00,20,11.60
2018,05,31,00,21,11.50
2018,05,31,00,22,11.50
2018,05,31,00,23,11.40
2018,05,31,00,24,11.40
2018,05,31,00,25,11.40
2018,05,31,00,26,11.40
2018,05,31,00,27,11.30
2018,05,31,00,28,11.30
2018,05,31,00,29,11.30
2018,05,31,00,30,11.30
2018,05,31,00,31,11.30
2018,05,31,00,32,11.30
2018,05,31,00,33,11.30
2018,05,31,00,34,11.20
2018,05,31,00,35,11.20
2018,05,31,00,36,11.20
2018,05,31,00,37,11.20
2018,05,31,00,38,11.20
2018,05,31,00,39,11.20
2018,05,31,00,40,11.30
2018,05,31,00,41,11.30
2018,05,31,00,42,11.20
2018,05,31,00,43,11.20
2018,05,31,00,44,11.20
2018,05,31,00,45,11.20
2018,05,31,00,46,11.20
2018,05,31,00,47,11.20
2018,05,31,00,48,11.20
2018,05,31,00,49,11.20
2018,05,31,00,50,11.20
2018,05,31,00,51,11.20
2018,05,31,00,52,11.20
2018,05,31,00,53,11.30
2018,05,31,00,54,11.30
2018,05,31,00,55,11.30
2018,05,31,00,56,11.30
2018,05,31,00,57,11.30
2018,05,31,00,58,11.30
2018,05,31,00,59,11.30
2018,05,31,01,00,11.20
2018,05,31,01,01,11.20
2018,05,31,01,02,11.20
2018,05,31,01,03,11.20
2018,05,31,01,04,11.20
2018,05,31,01,05,11.20
2018,05,31,01,06,11.20
2018,05,31,01,07,11.20
2018,05,31,01,08,11.20
2018,05,31,01,09,11.20
2018,05,31,01,10,11.20
2018,05,31,01,11,11.20
2018,05,31,01,12,11.20
2018,05,31,01,13,11.20
2018,05,31,01,14,11.20
2018,05,31,01,15,11.20
2018,05,31,01,16,11.20
2018,05,31,01,17,11.20
2018,05,31,01,18,11.20
2018,05,31,01,19,11.10
2018,05,31,01,20,11.10
2018,05,31,01,21,11.10
2018,05,31,01,22,11.10
2018,05,31,01,23,11.10
2018,05,31,01,24,11.10
2018,05,31,01,25,11.10
2018,05,31,01,26,11.10
2018,05,31,01,27,11.10
2018,05,31,01,28,11.10
2018,05,31,01,29,11.10
2018,05,31,01,30,11.10
2018,05,31,01,31,11.10
2018,05,31,01,32,11.10
2018,05,31,01,33,11.10
2018,05,31,01,34,11.10
2018,05,31,01,35,11.10
2018,05,31,01,36,11.10
2018,05,31,01,37,11.10
2018,05,31,01,38,11.10
2018,05,31,01,39,11.10
2018,05,31,01,40,11.10
2018,05,31,01,41,11.10
2018,05,31,01,42,11.10
2018,05,31,01,43,11.10
2018,05,31,01,44,11.10
2018,05,31,01,45,11.10
2018,05,31,01,46,11.10
2018,05,31,01,47,11.10
2018,05,31,01,48,11.00
2018,05,31,01,49,11.00
2018,05,31,01,50,11.00
2018,05,31,01,51,11.00
2018,05,31,01,52,10.90
2018,05,31,01,53,10.90
2018,05,31,01,54,10.90
2018,05,31,01,55,10.90
2018,05,31,01,56,10.90
2018,05,31,01,57,10.80
2018,05,31,01,58,10.80
2018,05,31,01,59,10.80
2018,05,31,02,00,10.80
2018,05,31,02,01,10.80
2018,05,31,02,02,10.80
2018,05,31,02,03,10.70
2018,05,31,02,04,10.70
2018,05,31,02,05,10.70
2018,05,31,02,06,10.70
2018,05,31,02,07,10.70
2018,05,31,02,08,10.70
2018,05,31,02,09,10.70
2018,05,31,02,10,10.70
2018,05,31,02,11,10.70
2018,05,31,02,12,10.70
2018,05,31,02,13,10.70
2018,05,31,02,14,10.70
2018,05,31,02,15,10.70
2018,05,31,02,16,10.60
2018,05,31,02,17,10.60
2018,05,31,02,18,10.60
2018,05,31,02,19,10.60
2018,05,31,02,20,10.60
2018,05,31,02,21,10.60
2018,05,31,02,22,10.60
2018,05,31,02,23,10.70
2018,05,31,02,24,10.60
2018,05,31,02,25,10.70
2018,05,31,02,26,10.70
2018,05,31,02,27,10.70
2018,05,31,02,28,10.70
2018,05,31,02,29,10.70
2018,05,31,02,30,10.70
2018,05,31,02,31,10.70
2018,05,31,02,32,10.70
2018,05,31,02,33,10.70
2018,05,31,02,34,10.70
2018,05,31,02,35,10.70
2018,05,31,02,36,10.70
2018,05,31,02,37,10.70
2018,05,31,02,38,10.70
2018,05,31,02,39,10.70
2018,05,31,02,40,10.70
2018,05,31,02,41,10.70
2018,05,31,02,42,10.70
2018,05,31,02,43,10.70
2018,05,31,02,44,10.70
2018,05,31,02,45,10.70
2018,05,31,02,46,10.70
2018,05,31,02,47,10.70
2018,05,31,02,48,10.70
2018,05,31,02,49,10.60
2018,05,31,02,50,10.60
2018,05,31,02,51,10.60
2018,05,31,02,52,10.60
2018,05,31,02,53,10.60
2018,05,31,02,54,10.60
2018,05,31,02,55,10.60
2018,05,31,02,56,10.60
2018,05,31,02,57,10.60
2018,05,31,02,58,10.60
2018,05,31,02,59,10.60
2018,05,31,03,00,10.60
2018,05,31,03,01,10.60
2018,05,31,03,02,10.60
2018,05,31,03,03,10.60
2018,05,31,03,04,10.60
2018,05,31,03,05,10.60
2018,05,31,03,06,10.50
2018,05,31,03,07,10.50
2018,05,31,03,08,10.60
2018,05,31,03,09,10.60
2018,05,31,03,10,10.60
2018,05,31,03,11,10.60
2018,05,31,03,12,10.60
2018,05,31,03,13,10.60
2018,05,31,03,14,10.60
2018,05,31,03,15,10.60
2018,05,31,03,16,10.60
2018,05,31,03,17,10.60
2018,05,31,03,18,10.60
2018,05,31,03,19,10.60
2018,05,31,03,20,10.60
2018,05,31,03,21,10.60
2018,05,31,03,22,10.60
2018,05,31,03,23,10.60
2018,05,31,03,24,10.60
2018,05,31,03,25,10.60
2018,05,31,03,26,10.60
2018,05,31,03,27,10.60
2018,05,31,03,28,10.60
2018,05,31,03,29,10.60
2018,05,31,03,30,10.60
2018,05,31,03,31,10.60
2018,05,31,03,32,10.60
2018,05,31,03,33,10.60
2018,05,31,03,34,10.60
2018,05,31,03,35,10.60
2018,05,31,03,36,10.50
2018,05,31,03,37,10.50
2018,05,31,03,38,10.50
2018,05,31,03,39,10.40
2018,05,31,03,40,10.40
2018,05,31,03,41,10.40
2018,05,31,03,42,10.40
2018,05,31,03,43,10.40
2018,05,31,03,44,10.40
2018,05,31,03,45,10.40
2018,05,31,03,46,10.40
2018,05,31,03,47,10.40
2018,05,31,03,48,10.40
2018,05,31,03,49,10.30
2018,05,31,03,50,10.30
2018,05,31,03,51,10.30
2018,05,31,03,52,10.30
2018,05,31,03,53,10.30
2018,05,31,03,54,10.30
2018,05,31,03,55,10.20
2018,05,31,03,56,10.20
2018,05,31,03,57,10.20
2018,05,31,03,58,10.20
2018,05,31,03,59,10.20
2018,05,31,04,00,10.20
2018,05,31,04,01,10.20
2018,05,31,04,02,10.20
2018,05,31,04,03,10.20
2018,05,31,04,04,10.30
2018,05,31,04,05,10.30
2018,05,31,04,06,10.30
2018,05,31,04,07,10.30
2018,05,31,04,08,10.30
2018,05,31,04,09,10.30
2018,05,31,04,10,10.30
2018,05,31,04,11,10.30
2018,05,31,04,12,10.30
2018,05,31,04,13,10.30
2018,05,31,04,14,10.30
2018,05,31,04,15,10.30
2018,05,31,04,16,10.30
2018,05,31,04,17,10.30
2018,05,31,04,18,10.30
2018,05,31,04,19,10.30
2018,05,31,04,20,10.30
2018,05,31,04,21,10.30
2018,05,31,04,22,10.30
2018,05,31,04,23,10.30
2018,05,31,04,24,10.30
2018,05,31,04,25,10.30
2018,05,31,04,26,10.30
2018,05,31,04,27,10.30
2018,05,31,04,28,10.30
2018,05,31,04,29,10.30
2018,05,31,04,30,10.20
2018,05,31,04,31,10.20
2018,05,31,04,32,10.20
2018,05,31,04,33,10.20
2018,05,31,04,34,10.20
2018,05,31,04,35,10.20
2018,05,31,04,36,10.20
2018,05,31,04,37,10.20
2018,05,31,04,38,10.20
2018,05,31,04,39,10.20
2018,05,31,04,40,10.20
2018,05,31,04,41,10.20
2018,05,31,04,42,10.20
2018,05,31,04,43,10.20
2018,05,31,04,44,10.10
2018,05,31,04,45,10.10
2018,05,31,04,46,10.10
2018,05,31,04,47,10.10
2018,05,31,04,48,10.10
2018,05,31,04,49,10.10
2018,05,31,04,50,10.10
2018,05,31,04,51,10.10
2018,05,31,04,52,10.10
2018,05,31,04,53,10.10
2018,05,31,04,54,10.10
2018,05,31,04,55,10.00
2018,05,31,04,56,10.00
2018,05,31,04,57,10.00
2018,05,31,04,58,10.00
2018,05,31,04,59,10.00
2018,05,31,05,00,10.00
2018,05,31,05,01,10.00
2018,05,31,05,02,10.00
2018,05,31,05,03,10.00
2018,05,31,05,04,10.00
2018,05,31,05,05,9.90
2018,05,31,05,06,9.90
2018,05,31,05,07,9.90
2018,05,31,05,08,9.90
2018,05,31,05,09,9.90
2018,05,31,05,10,9.90
2018,05,31,05,11,9.90
2018,05,31,05,12,9.90
2018,05,31,05,13,9.90
2018,05,31,05,14,9.90
2018,05,31,05,15,9.90
2018,05,31,05,16,9.90
2018,05,31,05,17,9.90
2018,05,31,05,18,9.90
2018,05,31,05,19,9.90
2018,05,31,05,20,9.90
2018,05,31,05,21,9.90
2018,05,31,05,22,9.80
2018,05,31,05,23,9.80
2018,05,31,05,24,9.80
2018,05,31,05,25,9.80
2018,05,31,05,26,9.80
2018,05,31,05,27,9.80
2018,05,31,05,28,9.80
2018,05,31,05,29,9.80
2018,05,31,05,30,9.80
2018,05,31,05,31,9.80
2018,05,31,05,32,9.80
2018,05,31,05,33,9.80
2018,05,31,05,34,9.80
2018,05,31,05,35,9.80
2018,05,31,05,36,9.80
2018,05,31,05,37,9.70
2018,05,31,05,38,9.70
2018,05,31,05,39,9.70
2018,05,31,05,40,9.70
2018,05,31,05,41,9.70
2018,05,31,05,42,9.70
2018,05,31,05,43,9.70
2018,05,31,05,44,9.60
2018,05,31,05,45,9.60
2018,05,31,05,46,9.60
2018,05,31,05,47,9.50
2018,05,31,05,48,9.50
2018,05,31,05,49,9.50
2018,05,31,05,50,9.40
2018,05,31,05,51,9.40
2018,05,31,05,52,9.40
2018,05,31,05,53,9.40
2018,05,31,05,54,9.40
2018,05,31,05,55,9.40
2018,05,31,05,56,9.40
2018,05,31,05,57,9.40
2018,05,31,05,58,9.40
2018,05,31,05,59,9.40
2018,05,31,06,00,9.40
2018,05,31,06,01,9.40
2018,05,31,06,02,9.40
2018,05,31,06,03,9.40
2018,05,31,06,04,9.40
2018,05,31,06,05,9.50
2018,05,31,06,06,9.50
2018,05,31,06,07,9.60
2018,05,31,06,08,9.60
2018,05,31,06,09,9.60
2018,05,31,06,10,9.60
2018,05,31,06,11,9.70
2018,05,31,06,12,9.70
2018,05,31,06,13,9.70
2018,05,31,06,14,9.70
2018,05,31,06,15,9.70
2018,05,31,06,16,9.70
2018,05,31,06,17,9.70
2018,05,31,06,18,9.70
2018,05,31,06,19,9.70
2018,05,31,06,20,9.80
2018,05,31,06,21,9.80
2018,05,31,06,22,9.80
2018,05,31,06,23,9.80
2018,05,31,06,24,9.80
2018,05,31,06,25,9.80
2018,05,31,06,26,9.80
2018,05,31,06,27,9.80
2018,05,31,06,28,9.80
2018,05,31,06,29,9.80
2018,05,31,06,30,9.80
2018,05,31,06,31,9.80
2018,05,31,06,32,9.80
2018,05,31,06,33,9.80
2018,05,31,06,34,9.80
2018,05,31,06,35,9.80
2018,05,31,06,36,9.80
2018,05,31,06,37,9.80
2018,05,31,06,38,9.90
2018,05,31,06,39,9.90
2018,05,31,06,40,9.90
2018,05,31,06,41,9.90
2018,05,31,06,42,9.90
2018,05,31,06,43,9.90
2018,05,31,06,44,9.90
2018,05,31,06,45,10.00
2018,05,31,06,46,10.00
2018,05,31,06,47,10.00
2018,05,31,06,48,10.10
2018,05,31,06,49,10.10
2018,05,31,06,50,10.10
2018,05,31,06,51,10.20
2018,05,31,06,52,10.20
2018,05,31,06,53,10.20
2018,05,31,06,54,10.20
2018,05,31,06,55,10.30
2018,05,31,06,56,10.30
2018,05,31,06,57,10.30
2018,05,31,06,58,10.40
2018,05,31,06,59,10.40
2018,05,31,07,00,10.40
2018,05,31,07,01,10.50
2018,05,31,07,02,10.50
2018,05,31,07,03,10.50
2018,05,31,07,04,10.60
2018,05,31,07,05,10.60
2018,05,31,07,06,10.60
2018,05,31,07,07,10.70
2018,05,31,07,08,10.70
2018,05,31,07,09,10.70
2018,05,31,07,10,10.80
2018,05,31,07,11,10.80
2018,05,31,07,12,10.90
2018,05,31,07,13,10.90
2018,05,31,07,14,10.90
2018,05,31,07,15,11.00
2018,05,31,07,16,11.10
2018,05,31,07,17,11.10
2018,05,31,07,18,11.10
2018,05,31,07,19,11.10
2018,05,31,07,20,11.20
2018,05,31,07,21,11.20
2018,05,31,07,22,11.20
2018,05,31,07,23,11.20
2018,05,31,07,24,11.30
2018,05,31,07,25,11.30
2018,05,31,07,26,11.30
2018,05,31,07,27,11.40
2018,05,31,07,28,11.40
2018,05,31,07,29,11.40
2018,05,31,07,30,11.40
2018,05,31,07,31,11.40
2018,05,31,07,32,11.40
2018,05,31,07,33,11.40
2018,05,31,07,34,11.40
2018,05,31,07,35,11.50
2018,05,31,07,36,11.50
2018,05,31,07,37,11.50
2018,05,31,07,38,11.50
2018,05,31,07,39,11.50
2018,05,31,07,40,11.60
2018,05,31,07,41,11.50
2018,05,31,07,42,11.50
2018,05,31,07,43,11.50
2018,05,31,07,44,11.50
2018,05,31,07,45,11.50
2018,05,31,07,46,11.60
2018,05,31,07,47,11.50
2018,05,31,07,48,11.50
2018,05,31,07,49,11.50
2018,05,31,07,50,11.50
2018,05,31,07,51,11.50
2018,05,31,07,52,11.40
2018,05,31,07,53,11.40
2018,05,31,07,54,11.40
2018,05,31,07,55,11.40
2018,05,31,07,56,11.50
2018,05,31,07,57,11.50
2018,05,31,07,58,11.50
2018,05,31,07,59,11.60
2018,05,31,08,00,11.60
2018,05,31,08,01,11.60
2018,05,31,08,02,11.60
2018,05,31,08,03,11.60
2018,05,31,08,04,11.60
2018,05,31,08,05,11.60
2018,05,31,08,06,11.70
2018,05,31,08,07,11.70
2018,05,31,08,08,11.70
2018,05,31,08,09,11.80
2018,05,31,08,10,11.80
2018,05,31,08,11,11.90
2018,05,31,08,12,11.90
2018,05,31,08,13,12.00
2018,05,31,08,14,12.10
2018,05,31,08,15,12.10
2018,05,31,08,16,12.20
2018,05,31,08,17,12.30
2018,05,31,08,18,12.30
2018,05,31,08,19,12.40
2018,05,31,08,20,12.50
2018,05,31,08,21,12.50
2018,05,31,08,22,12.60
2018,05,31,08,23,12.70
2018,05,31,08,24,12.70
2018,05,31,08,25,12.80
2018,05,31,08,26,12.80
2018,05,31,08,27,12.80
2018,05,31,08,28,12.90
2018,05,31,08,29,12.90
2018,05,31,08,30,12.90
2018,05,31,08,31,13.00
2018,05,31,08,32,13.00
2018,05,31,08,33,13.10
2018,05,31,08,34,13.20
2018,05,31,08,35,13.20
2018,05,31,08,36,13.20
2018,05,31,08,37,13.30
2018,05,31,08,38,13.30
2018,05,31,08,39,13.30
2018,05,31,08,40,13.30
2018,05,31,08,41,13.40
2018,05,31,08,42,13.40
2018,05,31,08,43,13.50
2018,05,31,08,44,13.60
2018,05,31,08,45,13.70
2018,05,31,08,46,13.70
2018,05,31,08,47,13.70
2018,05,31,08,48,13.80
2018,05,31,08,49,13.80
2018,05,31,08,50,13.80
2018,05,31,08,51,13.80
2018,05,31,08,52,13.80
2018,05,31,08,53,13.90
2018,05,31,08,54,14.00
2018,05,31,08,55,14.00
2018,05,31,08,56,14.10
2018,05,31,08,57,14.20
2018,05,31,08,58,14.20
2018,05,31,08,59,14.30
2018,05,31,09,00,14.30
2018,05,31,09,01,14.40
2018,05,31,09,02,14.50
2018,05,31,09,03,14.60
2018,05,31,09,04,14.70
2018,05,31,09,05,14.70
2018,05,31,09,06,14.80
2018,05,31,09,07,14.80
2018,05,31,09,08,14.80
2018,05,31,09,09,14.80
2018,05,31,09,10,14.90
2018,05,31,09,11,14.90
2018,05,31,09,12,15.00
2018,05,31,09,13,15.10
2018,05,31,09,14,15.20
2018,05,31,09,15,15.30
2018,05,31,09,16,15.40
2018,05,31,09,17,15.40
2018,05,31,09,18,15.40
2018,05,31,09,19,15.40
2018,05,31,09,20,15.30
2018,05,31,09,21,15.20
2018,05,31,09,22,15.20
2018,05,31,09,23,15.10
2018,05,31,09,24,15.10
2018,05,31,09,25,15.10
2018,05,31,09,26,15.00
2018,05,31,09,27,15.00
2018,05,31,09,28,15.00
2018,05,31,09,29,15.00
2018,05,31,09,30,15.00
2018,05,31,09,31,15.10
2018,05,31,09,32,15.10
2018,05,31,09,33,15.10
2018,05,31,09,34,15.10
2018,05,31,09,35,15.20
2018,05,31,09,36,15.20
2018,05,31,09,37,15.20
2018,05,31,09,38,15.20
2018,05,31,09,39,15.30
2018,05,31,09,40,15.40
2018,05,31,09,41,15.50
2018,05,31,09,42,15.60
2018,05,31,09,43,15.70
2018,05,31,09,44,15.70
2018,05,31,09,45,15.70
2018,05,31,09,46,15.70
2018,05,31,09,47,15.80
2018,05,31,09,48,15.80
2018,05,31,09,49,15.90
2018,05,31,09,50,16.00
2018,05,31,09,51,16.10
2018,05,31,09,52,16.20
2018,05,31,09,53,16.40
2018,05,31,09,54,16.50
2018,05,31,09,55,16.60
2018,05,31,09,56,16.70
2018,05,31,09,57,16.80
2018,05,31,09,58,16.80
2018,05,31,09,59,16.80
2018,05,31,10,00,16.80
2018,05,31,10,01,16.80
2018,05,31,10,02,16.80
2018,05,31,10,03,16.80
2018,05,31,10,04,16.80
2018,05,31,10,05,16.80
2018,05,31,10,06,16.80
2018,05,31,10,07,16.90
2018,05,31,10,08,16.90
2018,05,31,10,09,17.00
2018,05,31,10,10,17.10
2018,05,31,10,11,17.10
2018,05,31,10,12,17.10
2018,05,31,10,13,17.00
2018,05,31,10,14,16.90
2018,05,31,10,15,16.90
2018,05,31,10,16,16.80
2018,05,31,10,17,16.80
2018,05,31,10,18,16.80
2018,05,31,10,19,16.90
2018,05,31,10,20,16.90
2018,05,31,10,21,17.00
2018,05,31,10,22,17.00
2018,05,31,10,23,16.90
2018,05,31,10,24,16.90
2018,05,31,10,25,16.90
2018,05,31,10,26,16.90
2018,05,31,10,27,16.90
2018,05,31,10,28,16.90
2018,05,31,10,29,17.00
2018,05,31,10,30,17.00
2018,05,31,10,31,17.10
2018,05,31,10,32,17.10
2018,05,31,10,33,17.10
2018,05,31,10,34,17.20
2018,05,31,10,35,17.20
2018,05,31,10,36,17.20
2018,05,31,10,37,17.20
2018,05,31,10,38,17.30
2018,05,31,10,39,17.30
2018,05,31,10,40,17.40
2018,05,31,10,41,17.40
2018,05,31,10,42,17.40
2018,05,31,10,43,17.30
2018,05,31,10,44,17.30
2018,05,31,10,45,17.20
2018,05,31,10,46,17.20
2018,05,31,10,47,17.20
2018,05,31,10,48,17.20
2018,05,31,10,49,17.30
2018,05,31,10,50,17.30
2018,05,31,10,51,17.30
2018,05,31,10,52,17.30
2018,05,31,10,53,17.30
2018,05,31,10,54,17.30
2018,05,31,10,55,17.30
2018,05,31,10,56,17.40
2018,05,31,10,57,17.40
2018,05,31,10,58,17.40
2018,05,31,10,59,17.40
2018,05,31,11,00,17.30
2018,05,31,11,01,17.20
2018,05,31,11,02,17.20
2018,05,31,11,03,17.20
2018,05,31,11,04,17.20
2018,05,31,11,05,17.20
2018,05,31,11,06,17.20
2018,05,31,11,07,17.20
2018,05,31,11,08,17.20
2018,05,31,11,09,17.20
2018,05,31,11,10,17.20
2018,05,31,11,11,17.30
2018,05,31,11,12,17.40
2018,05,31,11,13,17.40
2018,05,31,11,14,17.50
2018,05,31,11,15,17.40
2018,05,31,11,16,17.40
2018,05,31,11,17,17.40
2018,05,31,11,18,17.50
2018,05,31,11,19,17.60
2018,05,31,11,20,17.70
2018,05,31,11,21,17.80
2018,05,31,11,22,17.80
2018,05,31,11,23,17.70
2018,05,31,11,24,17.70
2018,05,31,11,25,17.60
2018,05,31,11,26,17.40
2018,05,31,11,27,17.40
2018,05,31,11,28,17.40
2018,05,31,11,29,17.30
2018,05,31,11,30,17.30
2018,05,31,11,31,17.30
2018,05,31,11,32,17.30
2018,05,31,11,33,17.40
2018,05,31,11,34,17.50
2018,05,31,11,35,17.60
2018,05,31,11,36,17.70
2018,05,31,11,37,17.80
2018,05,31,11,38,17.90
2018,05,31,11,39,18.00
2018,05,31,11,40,17.90
2018,05,31,11,41,17.90
2018,05,31,11,42,17.90
2018,05,31,11,43,17.90
2018,05,31,11,44,17.90
2018,05,31,11,45,17.80
2018,05,31,11,46,17.80
2018,05,31,11,47,17.70
2018,05,31,11,48,17.70
2018,05,31,11,49,17.60
2018,05,31,11,50,17.60
2018,05,31,11,51,17.60
2018,05,31,11,52,17.60
2018,05,31,11,53,17.60
2018,05,31,11,54,17.70
2018,05,31,11,55,17.80
2018,05,31,11,56,18.00
2018,05,31,11,57,18.00
2018,05,31,11,58,18.00
2018,05,31,11,59,17.90
2018,05,31,12,00,17.80
2018,05,31,12,01,17.80
2018,05,31,12,02,17.80
2018,05,31,12,03,18.00
2018,05,31,12,04,18.10
2018,05,31,12,05,18.20
2018,05,31,12,06,18.20
2018,05,31,12,07,18.20
2018,05,31,12,08,18.20
2018,05,31,12,09,18.20
2018,05,31,12,10,18.10
2018,05,31,12,11,18.10
2018,05,31,12,12,18.00
2018,05,31,12,13,17.90
2018,05,31,12,14,17.80
2018,05,31,12,15,17.80
2018,05,31,12,16,17.70
2018,05,31,12,17,17.70
2018,05,31,12,18,17.80
2018,05,31,12,19,17.90
2018,05,31,12,20,18.00
2018,05,31,12,21,18.00
2018,05,31,12,22,18.10
2018,05,31,12,23,18.30
2018,05,31,12,24,18.40
2018,05,31,12,25,18.60
2018,05,31,12,26,18.60
2018,05,31,12,27,18.50
2018,05,31,12,28,18.40
2018,05,31,12,29,18.30
2018,05,31,12,30,18.10
2018,05,31,12,31,18.00
2018,05,31,12,32,18.00
2018,05,31,12,33,18.00
2018,05,31,12,34,18.00
2018,05,31,12,35,18.00
2018,05,31,12,36,18.00
2018,05,31,12,37,18.00
2018,05,31,12,38,17.90
2018,05,31,12,39,17.80
2018,05,31,12,40,17.60
2018,05,31,12,41,17.60
2018,05,31,12,42,17.60
2018,05,31,12,43,17.60
2018,05,31,12,44,17.60
2018,05,31,12,45,17.70
2018,05,31,12,46,17.70
2018,05,31,12,47,17.70
2018,05,31,12,48,17.60
2018,05,31,12,49,17.50
2018,05,31,12,50,17.50
2018,05,31,12,51,17.40
2018,05,31,12,52,17.40
2018,05,31,12,53,17.30
2018,05,31,12,54,17.30
2018,05,31,12,55,17.40
2018,05,31,12,56,17.40
2018,05,31,12,57,17.50
2018,05,31,12,58,17.40
2018,05,31,12,59,17.40
2018,05,31,13,00,17.30
2018,05,31,13,01,17.40
2018,05,31,13,02,17.40
2018,05,31,13,03,17.40
2018,05,31,13,04,17.40
2018,05,31,13,05,17.30
2018,05,31,13,06,17.20
2018,05,31,13,07,17.20
2018,05,31,13,08,17.10
2018,05,31,13,09,17.10
2018,05,31,13,10,17.00
2018,05,31,13,11,17.00
2018,05,31,13,12,16.90
2018,05,31,13,13,16.80
2018,05,31,13,14,16.80
2018,05,31,13,15,16.90
2018,05,31,13,16,16.90
2018,05,31,13,17,16.90
2018,05,31,13,18,16.90
2018,05,31,13,19,17.00
2018,05,31,13,20,17.00
2018,05,31,13,21,17.10
2018,05,31,13,22,17.20
2018,05,31,13,23,17.30
2018,05,31,13,24,17.30
2018,05,31,13,25,17.40
2018,05,31,13,26,17.40
2018,05,31,13,27,17.50
2018,05,31,13,28,17.60
2018,05,31,13,29,17.70
2018,05,31,13,30,17.70
2018,05,31,13,31,17.60
2018,05,31,13,32,17.50
2018,05,31,13,33,17.50
2018,05,31,13,34,17.50
2018,05,31,13,35,17.50
2018,05,31,13,36,17.50
2018,05,31,13,37,17.60
2018,05,31,13,38,17.60
2018,05,31,13,39,17.70
2018,05,31,13,40,17.80
2018,05,31,13,41,17.80
2018,05,31,13,42,17.90
2018,05,31,13,43,17.90
2018,05,31,13,44,17.90
2018,05,31,13,45,18.00
2018,05,31,13,46,18.10
2018,05,31,13,47,18.00
2018,05,31,13,48,18.00
2018,05,31,13,49,18.10
2018,05,31,13,50,18.10
2018,05,31,13,51,18.10
2018,05,31,13,52,18.10
2018,05,31,13,53,18.10
2018,05,31,13,54,18.10
2018,05,31,13,55,18.10
2018,05,31,13,56,18.00
2018,05,31,13,57,17.90
2018,05,31,13,58,17.80
2018,05,31,13,59,17.80
2018,05,31,14,00,17.70
2018,05,31,14,01,17.70
2018,05,31,14,02,17.70
2018,05,31,14,03,17.70
2018,05,31,14,04,17.70
2018,05,31,14,05,17.70
2018,05,31,14,06,17.70
2018,05,31,14,07,17.70
2018,05,31,14,08,17.70
2018,05,31,14,09,17.80
2018,05,31,14,10,17.90
2018,05,31,14,11,17.90
2018,05,31,14,12,18.00
2018,05,31,14,13,18.00
2018,05,31,14,14,18.10
2018,05,31,14,15,18.20
2018,05,31,14,16,18.20
2018,05,31,14,17,18.30
2018,05,31,14,18,18.30
2018,05,31,14,19,18.30
2018,05,31,14,20,18.30
2018,05,31,14,21,18.20
2018,05,31,14,22,18.20
2018,05,31,14,23,18.10
2018,05,31,14,24,18.10
2018,05,31,14,25,18.00
2018,05,31,14,26,18.00
2018,05,31,14,27,18.00
2018,05,31,14,28,18.00
2018,05,31,14,29,18.00
2018,05,31,14,30,18.00
2018,05,31,14,31,18.10
2018,05,31,14,32,18.10
2018,05,31,14,33,18.10
2018,05,31,14,34,18.10
2018,05,31,14,35,18.20
2018,05,31,14,36,18.20
2018,05,31,14,37,18.10
2018,05,31,14,38,18.10
2018,05,31,14,39,18.10
2018,05,31,14,40,18.10
2018,05,31,14,41,18.20
2018,05,31,14,42,18.20
2018,05,31,14,43,18.20
2018,05,31,14,44,18.20
2018,05,31,14,45,18.20
2018,05,31,14,46,18.10
2018,05,31,14,47,18.10
2018,05,31,14,48,18.10
2018,05,31,14,49,18.20
2018,05,31,14,50,18.30
2018,05,31,14,51,18.30
2018,05,31,14,52,18.20
2018,05,31,14,53,18.20
2018,05,31,14,54,18.10
2018,05,31,14,55,18.10
2018,05,31,14,56,18.10
2018,05,31,14,57,18.10
2018,05,31,14,58,18.00
2018,05,31,14,59,18.00
2018,05,31,15,00,17.90
2018,05,31,15,01,17.90
2018,05,31,15,02,17.90
2018,05,31,15,03,17.90
2018,05,31,15,04,17.80
2018,05,31,15,05,17.80
2018,05,31,15,06,17.80
2018,05,31,15,07,17.80
2018,05,31,15,08,17.80
2018,05,31,15,09,17.70
2018,05,31,15,10,17.60
2018,05,31,15,11,17.50
2018,05,31,15,12,17.50
2018,05,31,15,13,17.40
2018,05,31,15,14,17.40
2018,05,31,15,15,17.30
2018,05,31,15,16,17.30
2018,05,31,15,17,17.30
2018,05,31,15,18,17.30
2018,05,31,15,19,17.20
2018,05,31,15,20,17.20
2018,05,31,15,21,17.20
2018,05,31,15,22,17.30
2018,05,31,15,23,17.30
2018,05,31,15,24,17.40
2018,05,31,15,25,17.60
2018,05,31,15,26,17.80
2018,05,31,15,27,17.90
2018,05,31,15,28,18.00
2018,05,31,15,29,18.10
2018,05,31,15,30,18.10
2018,05,31,15,31,18.20
2018,05,31,15,32,18.20
2018,05,31,15,33,18.30
2018,05,31,15,34,18.40
2018,05,31,15,35,18.50
2018,05,31,15,36,18.60
2018,05,31,15,37,18.60
2018,05,31,15,38,18.50
2018,05,31,15,39,18.40
2018,05,31,15,40,18.40
2018,05,31,15,41,18.40
2018,05,31,15,42,18.50
2018,05,31,15,43,18.40
2018,05,31,15,44,18.40
2018,05,31,15,45,18.50
2018,05,31,15,46,18.60
2018,05,31,15,47,18.60
2018,05,31,15,48,18.70
2018,05,31,15,49,18.60
2018,05,31,15,50,18.60
2018,05,31,15,51,18.60
2018,05,31,15,52,18.50
2018,05,31,15,53,18.40
2018,05,31,15,54,18.50
2018,05,31,15,55,18.50
2018,05,31,15,56,18.60
2018,05,31,15,57,18.70
2018,05,31,15,58,18.80
2018,05,31,15,59,18.90
2018,05,31,16,00,19.00
2018,05,31,16,01,19.10
2018,05,31,16,02,19.20
2018,05,31,16,03,19.30
2018,05,31,16,04,19.30
2018,05,31,16,05,19.30
2018,05,31,16,06,19.30
2018,05,31,16,07,19.30
2018,05,31,16,08,19.20
2018,05,31,16,09,19.20
2018,05,31,16,10,19.20
2018,05,31,16,11,19.30
2018,05,31,16,12,19.30
2018,05,31,16,13,19.20
2018,05,31,16,14,19.10
2018,05,31,16,15,19.00
2018,05,31,16,16,18.90
2018,05,31,16,17,18.80
2018,05,31,16,18,18.80
2018,05,31,16,19,18.80
2018,05,31,16,20,18.80
2018,05,31,16,21,18.80
2018,05,31,16,22,18.80
2018,05,31,16,23,18.80
2018,05,31,16,24,18.90
2018,05,31,16,25,18.90
2018,05,31,16,26,19.00
2018,05,31,16,27,19.10
2018,05,31,16,28,19.10
2018,05,31,16,29,19.00
2018,05,31,16,30,18.90
2018,05,31,16,31,18.80
2018,05,31,16,32,18.80
2018,05,31,16,33,18.80
2018,05,31,16,34,18.70
2018,05,31,16,35,18.70
2018,05,31,16,36,18.60
2018,05,31,16,37,18.60
2018,05,31,16,38,18.50
2018,05,31,16,39,18.50
2018,05,31,16,40,18.50
2018,05,31,16,41,18.50
2018,05,31,16,42,18.60
2018,05,31,16,43,18.80
2018,05,31,16,44,18.80
2018,05,31,16,45,18.90
2018,05,31,16,46,19.00
2018,05,31,16,47,19.10
2018,05,31,16,48,19.10
2018,05,31,16,49,19.20
2018,05,31,16,50,19.20
2018,05,31,16,51,19.20
2018,05,31,16,52,19.20
2018,05,31,16,53,19.20
2018,05,31,16,54,19.20
2018,05,31,16,55,19.20
2018,05,31,16,56,19.20
2018,05,31,16,57,19.20
2018,05,31,16,58,19.30
2018,05,31,16,59,19.30
2018,05,31,17,00,19.30
2018,05,31,17,01,19.30
2018,05,31,17,02,19.30
2018,05,31,17,03,19.20
2018,05,31,17,04,19.20
2018,05,31,17,05,19.10
2018,05,31,17,06,19.10
2018,05,31,17,07,19.10
2018,05,31,17,08,19.20
2018,05,31,17,09,19.20
2018,05,31,17,10,19.30
2018,05,31,17,11,19.30
2018,05,31,17,12,19.40
2018,05,31,17,13,19.50
2018,05,31,17,14,19.50
2018,05,31,17,15,19.50
2018,05,31,17,16,19.50
2018,05,31,17,17,19.60
2018,05,31,17,18,19.70
2018,05,31,17,19,19.80
2018,05,31,17,20,19.80
2018,05,31,17,21,19.70
2018,05,31,17,22,19.70
2018,05,31,17,23,19.60